Location: *
(35.8942°N, 23.3025°E)
Time: 16:24:51
(UTC+00:00)

Hubble Space Telescope - Visible Passes

Search period start: 03 December 2022 00:00
Search period end: 13 December 2022 00:00
Orbit: 530 x 534 km, 28.5° (Epoch: 02 December)

Date Brightness Start Highest point End Pass type
(mag) Time Alt. Az. Time Alt. Az. Time Alt. Az.
06 Dec 3.5 03:54:14 10° S 03:55:51 12° SSE 03:57:27 10° SE visible
07 Dec 3.4 03:40:53 10° SSW 03:43:06 14° SSE 03:45:19 10° SE visible
08 Dec 3.1 03:28:30 13° SSW 03:30:21 16° SSE 03:32:58 10° ESE visible
09 Dec 2.9 03:16:56 18° S 03:17:36 19° SSE 03:20:30 10° ESE visible
09 Dec 2.5 04:54:37 10° WSW 04:58:10 28° S 05:01:41 10° ESE visible
10 Dec 2.8 03:05:16 21° SSE 03:05:16 21° SSE 03:07:59 10° ESE visible
10 Dec 2.4 04:41:54 10° WSW 04:45:26 28° S 04:48:59 10° ESE visible
11 Dec 3.1 02:53:31 19° SE 02:53:31 19° SE 02:55:23 10° ESE visible
11 Dec 2.3 04:29:11 10° WSW 04:32:43 28° S 04:36:16 10° ESE visible
12 Dec 3.5 02:41:41 16° SE 02:41:41 16° SE 02:42:46 10° ESE visible
12 Dec 2.3 04:16:54 12° WSW 04:20:00 27° S 04:23:30 10° SE visible
